sat.trackr.live / text

‹ back to catalog

KUIPER-00203

NORAD 67773 · 2026-030K

PAYLOAD ACTIVE UNKNOWN

§ Identity

Operator
Country
US
Launch date
2026-02-12
Launch site
FRGUI
Launch vehicle
Mass (kg)
RCS (m²)

External: N2YO · Heavens-Above · Gunter

§ Orbital elements

Epoch: 2026-05-24T23:44:04.907616Z

Period
97.30 min
Inclination
51.9059°
Eccentricity
0.0000445
Mean motion
14.79961102 rev/d
Perigee alt
629.1 km
Apogee alt
629.8 km
Semi-major
7,007.6 km
B*
4.3839e-4
RAAN
240.7424°
Arg perigee
116.2290°
Mean anomaly
243.8719°
Rev number
1,640

§ Raw data

KUIPER-002031 67773U 26030K   26144.98894569  .00003125  00000+0  43839-3 0  99962 67773  51.9059 240.7424 0000445 116.2290 243.8719 14.79961102 16403

JSON: /api/v1/satellites/67773 · /tle

For live sub-satellite position, see the globe view (requires WebGL).

§ Visibility from observer

Set your observer location to see the next 7 days of passes ≥ 10°. The values pass through the URL so the page stays shareable.

No JS? Fill the form by hand. The geolocation button needs JavaScript.